Hourly Data Report for October 22, 2014

All times are specified in Local Standard Time (LST). Add 1 hour to adjust for Daylight Saving Time where and when it is observed.

CLYDE RIVER A
NUNAVUT

70°29'09.000" N
68°31'01.000" W
26.50 m
2400804
71090
YCY

Download Data

Hourly Data (October 2014)
Hourly Data Report for October 22, 2014
Temp Definition
°C
Dew Point Temp Definition
°C
Rel Hum Definition
%
Wind Dir Definition
10's deg

Wind Spd Definition
km/h
Visibility Definition
km
Stn Press Definition
kPa
Hmdx Definition


Wind Chill Definition


Weather Definition


TIME
00:00 Legend Double Dagger -9.3 -10.9 88 32 9 16.1 99.85   -14 LegendNANA
01:00 Legend Double Dagger -9.5 -10.7 91 35 11 16.1 99.83   -15 LegendNANA
02:00 Legend Double Dagger -7.0 -9.0 86 28 13 16.1 99.81   -13 LegendNANA
03:00 Legend Double Dagger -6.9 -9.5 82 28 11 16.1 99.77   -12 LegendNANA
04:00 Legend Double Dagger -6.8 -9.9 79 28 11 16.1 99.78   -12 LegendNANA
05:00 Legend Double Dagger -6.3 -9.5 78 25 11 16.1 99.81   -11 LegendNANA
06:00 Legend Double Dagger -9.4 -12.6 78 30 21 16.1 99.77   -17 LegendNANA
07:00 Legend Double Dagger -9.3 -13.4 72 26 13 16.1 99.76   -15 LegendNANA
08:00 Legend Double Dagger -9.7 -13.7 73 24 15 16.1 99.77   -16 LegendNANA
09:00 Legend Double Dagger -11.8 -14.7 80 30 17 16.1 99.76   -19 LegendNANA
10:00 Legend Double Dagger -9.7 -13.6 73 27 5 16.1 99.73   -13 LegendNANA
11:00 Legend Double Dagger -8.6 -13.2 70 24 11 16.1 99.70   -14 LegendNANA
12:00 Legend Double Dagger -8.5 -13.6 67 27 15 16.1 99.71   -15 LegendNANA
13:00 Legend Double Dagger -8.3 -13.3 68 26 15 16.1 99.73   -15 LegendNANA
14:00 Legend Double Dagger -7.1 -11.9 69 23 9 16.1 99.74   -11 LegendNANA
15:00 Legend Double Dagger -7.0 -11.4 71 27 11 16.1 99.74   -12 LegendNANA
16:00 Legend Double Dagger -7.4 -10.9 76 28 21 12.9 99.73   -15 LegendNANA
17:00 Legend Double Dagger -6.3 -11.0 70 28 9 16.1 99.72   -11 LegendNANA
18:00 Legend Double Dagger -8.2 -11.1 80 31 21 16.1 99.71   -16 LegendNANA
19:00 Legend Double Dagger -7.0 -10.4 77 28 17 16.1 99.69   -13 LegendNANA
20:00 Legend Double Dagger -7.4 -10.3 80 26 9 16.1 99.66   -12 LegendNANA
21:00 Legend Double Dagger -7.9 -11.1 78 29 21 16.1 99.65   -15 LegendNANA
22:00 Legend Double Dagger -8.1 -11.1 79 26 17 16.1 99.64   -15 Snow
23:00 Legend Double Dagger -7.5 -9.9 83 30 37 16.1 99.61   -17 Snow

Notes on Data Quality.

Legend

  • E = Estimated
  • M = Missing
  • NA = Not Available
  • ‡ = Partner data that is not subject to review by the National Climate Archives
Date modified: